Weather History for Aberdeen, SD

Change the Weather History Date:

Monday, February 18, 2013

  Actual Average Record
Temperature  
Mean Temperature 20 °F 19 °F  
Max Temperature 35 °F 29 °F 66 °F (1930)
Min Temperature 4 °F 8 °F -32 °F (1903)
Degree Days  
Heating Degree Days 45 46  
Month to date heating degree days 856 887  
Since 1 July heating degree days 5869 6021  
Cooling Degree Days 0 0  
Month to date cooling degree days 0 0  
Year to date cooling degree days 0 0  
Moisture  
Dew Point 8 °F    
Average Humidity 76    
Maximum Humidity 84    
Minimum Humidity 67    
Precipitation  
Precipitation T in 0.02 in 0.33 in (1991)
Month to date precipitation 1.04 0.31  
Year to date precipitation 1.82 0.78  
Snow  
Snow 0.40 in - - ()
Month to date snowfall 15.4  
Since 1 July snowfall 38.9  
Snow Depth 8.00 in    
Sea Level Pressure  
Sea Level Pressure 29.95 in    
Wind  
Wind Speed 24 mph (NNW)    
Max Wind Speed 36 mph    
Max Gust Speed 41 mph    
Visibility 5 miles    
Events Snow    
T = Trace of Precipitation, MM = Missing Value Source: NWS Daily Summary

Daily Weather History Graph

Daily Weather History Graph

Search for Another Location

Airport:

Trip Planner

Search our weather history database for the weather conditions in past years. The results will help you decide how hot, cold, wet, or windy it might be!

Date:

Astronomy

Feb. 18, 2013 Rise Set
Actual Time 7:30 AM CST 6:05 PM CST
Civil Twilight 6:59 AM CST 6:35 PM CST
Nautical Twilight 6:25 AM CST 7:10 PM CST
Astronomical Twilight 5:51 AM CST 7:44 PM CST
Moon 11:44 AM CST (2/18) 2:19 AM CST (2/18)
Length of Visible Light 11h 35m
Length of Day
10h 35m
First Quarter, 58% of the Moon is Illuminated
Feb 18
First Quarter
Feb 25
Full
Mar 4
Last Quarter
Mar 11
New
Mar 19
First Quarter

Hourly Weather History & Observations

Time (CST) Temp. Windchill Dew Point Humidity Pressure Visibility Wind Dir Wind Speed Gust Speed Precip Events Conditions
12:53 AM 32.0 °F 23.6 °F 27.0 °F 82% 29.60 in 10.0 mi West 10.4 mph - N/A   Overcast
1:32 AM 33.8 °F 24.3 °F 28.4 °F 81% 29.56 in 10.0 mi West 13.8 mph - N/A   Overcast
1:53 AM 35.1 °F 25.2 °F 30.0 °F 82% 29.60 in 9.0 mi WNW 16.1 mph - N/A   Overcast
2:53 AM 35.1 °F 25.2 °F 28.9 °F 78% 29.61 in 9.0 mi WNW 16.1 mph - N/A   Overcast
3:53 AM 32.0 °F 17.2 °F 26.1 °F 79% 29.67 in 10.0 mi NW 32.2 mph 40.3 mph N/A   Overcast
4:21 AM 26.6 °F 10.6 °F 19.4 °F 74% 29.65 in 10.0 mi NNW 28.8 mph 36.8 mph N/A   Mostly Cloudy
4:53 AM 23.0 °F 6.9 °F 15.1 °F 72% 29.74 in 10.0 mi NNW 24.2 mph 39.1 mph N/A   Scattered Clouds
5:40 AM 21.2 °F 3.0 °F 15.8 °F 80% 29.72 in 10.0 mi NNW 29.9 mph 35.7 mph N/A   Mostly Cloudy
5:53 AM 21.2 °F 4.2 °F 14.0 °F 74% 29.74 in 10.0 mi NNW 25.3 mph 34.5 mph N/A   Mostly Cloudy
6:03 AM 19.4 °F 2.8 °F 12.2 °F 74% 29.75 in 10.0 mi NNW 21.9 mph 32.2 mph N/A   Scattered Clouds
6:53 AM 19.0 °F 1.6 °F 10.9 °F 71% 29.81 in 10.0 mi NNW 24.2 mph 31.1 mph N/A   Clear
7:53 AM 17.1 °F -2.0 °F 9.0 °F 71% 29.84 in 10.0 mi NW 27.6 mph 33.4 mph N/A   Clear
8:53 AM 16.0 °F -1.7 °F 7.0 °F 68% 29.88 in 10.0 mi NNW 21.9 mph 33.4 mph N/A   Partly Cloudy
9:25 AM 15.8 °F -4.4 °F 6.8 °F 68% 29.85 in 10.0 mi NNW 29.9 mph 35.7 mph N/A   Mostly Cloudy
9:53 AM 16.0 °F -1.7 °F 7.0 °F 68% 29.93 in 10.0 mi NNW 21.9 mph 34.5 mph N/A   Overcast
10:53 AM 16.0 °F -2.8 °F 7.0 °F 68% 29.95 in 10.0 mi NNW 25.3 mph 41.4 mph N/A   Overcast
11:28 AM 15.8 °F -1.9 °F 6.8 °F 68% 29.91 in 1.8 mi NNW 21.9 mph 29.9 mph 0.00 in Snow Light Snow
11:33 AM 15.8 °F -2.7 °F 8.6 °F 73% 29.91 in 0.8 mi NNW 24.2 mph 34.5 mph 0.00 in Snow Light Snow
11:48 AM 14.0 °F -6.8 °F 8.6 °F 79% 29.92 in 0.2 mi NW 29.9 mph 35.7 mph N/A Snow Heavy Snow
11:53 AM 14.0 °F -6.5 °F 8.1 °F 77% 29.99 in 0.2 mi NNW 28.8 mph 35.7 mph 0.00 in Snow Heavy Snow
12:41 PM 12.2 °F -7.9 °F 6.8 °F 79% 29.94 in 0.5 mi NNW 25.3 mph 35.7 mph 0.00 in Snow Snow
12:50 PM 12.2 °F -8.9 °F 8.6 °F 85% 29.94 in 0.2 mi NNW 28.8 mph 35.7 mph 0.00 in Snow Heavy Snow
12:53 PM 12.9 °F -8.0 °F 8.1 °F 81% 30.00 in 0.2 mi NNW 28.8 mph 35.7 mph 0.00 in Snow Heavy Snow
1:21 PM 12.2 °F -6.7 °F 6.8 °F 79% 29.94 in 0.5 mi NNW 21.9 mph 33.4 mph 0.00 in Snow Snow
1:33 PM 12.2 °F -7.9 °F 6.8 °F 79% 29.95 in 0.8 mi NNW 25.3 mph 33.4 mph 0.00 in Snow Light Snow
1:53 PM 14.0 °F -5.8 °F 7.0 °F 74% 30.00 in 1.0 mi NNW 26.5 mph 35.7 mph 0.00 in Snow Light Snow
2:10 PM 14.0 °F -3.9 °F 6.8 °F 73% 29.94 in 2.0 mi NNW 20.7 mph 34.5 mph 0.00 in Snow Blowing Snow
2:21 PM 15.8 °F -2.3 °F 6.8 °F 68% 29.95 in 3.0 mi NNW 23.0 mph 35.7 mph 0.00 in Snow Blowing Snow
2:53 PM 14.0 °F -4.7 °F 6.1 °F 71% 30.01 in 6.0 mi NNW 23.0 mph 32.2 mph 0.00 in Snow Light Snow
3:05 PM 15.8 °F -2.7 °F 6.8 °F 68% 29.96 in 1.8 mi NNW 24.2 mph 31.1 mph 0.00 in Snow Light Snow
3:13 PM 15.8 °F -2.3 °F 6.8 °F 68% 29.96 in 1.2 mi NNW 23.0 mph 31.1 mph 0.00 in Snow Light Snow
3:18 PM 14.0 °F -5.8 °F 6.8 °F 73% 29.96 in 2.0 mi North 26.5 mph 31.1 mph 0.00 in Snow Light Snow
3:21 PM 14.0 °F -3.9 °F 6.8 °F 73% 29.97 in 1.2 mi NNW 20.7 mph 31.1 mph 0.00 in Snow Light Snow
3:32 PM 12.2 °F -6.3 °F 6.8 °F 79% 29.97 in 0.5 mi North 20.7 mph 29.9 mph 0.00 in Snow Snow
3:42 PM 12.2 °F -10.2 °F 6.8 °F 79% 29.97 in 0.2 mi NNW 33.4 mph 41.4 mph 0.00 in Snow Heavy Snow
3:53 PM 10.9 °F -11.0 °F 3.9 °F 73% 30.04 in 0.5 mi NNW 29.9 mph 41.4 mph 0.00 in Snow Snow
4:07 PM 10.4 °F -11.0 °F 3.2 °F 73% 29.99 in 1.2 mi NNW 27.6 mph 34.5 mph 0.00 in Snow Blowing Snow
4:13 PM 10.4 °F -8.6 °F 3.2 °F 73% 29.99 in 2.0 mi NNW 20.7 mph 34.5 mph 0.00 in Snow Blowing Snow
4:17 PM 10.4 °F -8.6 °F 3.2 °F 73% 30.00 in 3.0 mi NNW 20.7 mph 32.2 mph 0.00 in Snow Blowing Snow
4:26 PM 10.4 °F -10.7 °F 3.2 °F 73% 30.00 in 6.0 mi NNW 26.5 mph 35.7 mph 0.00 in Snow Blowing Snow
4:34 PM 10.4 °F -9.1 °F 5.0 °F 79% 30.00 in 1.5 mi NNW 21.9 mph 35.7 mph 0.00 in Snow Blowing Snow
4:38 PM 10.4 °F -9.1 °F 5.0 °F 79% 30.01 in 0.8 mi NNW 21.9 mph 29.9 mph 0.00 in Snow Light Snow
4:48 PM 10.4 °F -9.5 °F 3.2 °F 73% 30.01 in 1.5 mi NNW 23.0 mph 34.5 mph 0.00 in Snow Light Snow
4:53 PM 10.9 °F -7.5 °F 1.9 °F 67% 30.08 in 3.0 mi NNW 19.6 mph 32.2 mph 0.00 in Snow Blowing Snow
5:17 PM 10.4 °F -11.4 °F 3.2 °F 73% 30.01 in 1.8 mi NNW 28.8 mph 34.5 mph N/A Snow Blowing Snow
5:37 PM 10.4 °F -9.9 °F 3.2 °F 73% 30.04 in 0.5 mi NNW 24.2 mph 38.0 mph 0.00 in Snow Snow
5:48 PM 8.6 °F -13.1 °F 1.4 °F 73% 30.04 in 1.5 mi NNW 26.5 mph 33.4 mph 0.00 in Snow Blowing Snow
5:53 PM 9.0 °F -12.6 °F 1.9 °F 73% 30.12 in 2.0 mi NNW 26.5 mph 34.5 mph 0.00 in Snow Blowing Snow
5:59 PM 8.6 °F -12.3 °F 1.4 °F 73% 30.05 in 4.0 mi NNW 24.2 mph 34.5 mph N/A Snow Blowing Snow
6:53 PM 7.0 °F -12.6 °F -0.9 °F 70% 30.14 in 10.0 mi NNW 19.6 mph 29.9 mph 0.00 in   Scattered Clouds
7:26 PM 6.8 °F -13.8 °F -2.2 °F 67% 30.08 in 10.0 mi NNW 21.9 mph - N/A   Mostly Cloudy
7:53 PM 7.0 °F -13.6 °F -0.9 °F 70% 30.16 in 10.0 mi NW 21.9 mph 31.1 mph N/A   Overcast
8:53 PM 8.1 °F -12.2 °F -0.9 °F 67% 30.17 in 10.0 mi NNW 21.9 mph - N/A   Overcast
9:53 PM 7.0 °F -13.1 °F -0.0 °F 73% 30.19 in 5.0 mi NNW 20.7 mph 32.2 mph 0.00 in   Haze
10:53 PM 6.1 °F -15.2 °F -0.9 °F 73% 30.21 in 6.0 mi NNW 23.0 mph 31.1 mph 0.00 in   Haze
11:53 PM 5.0 °F -17.9 °F -2.9 °F 70% 30.25 in 5.0 mi NNW 26.5 mph 32.2 mph N/A   Haze